Daytona Beach, FL

8:59 AM EDT on July 21, 2017 (GMT -0400)
Daytona Beach International

Weather History for KDAB - March, 2014

Change the Weather History Date:

Friday, March 28, 2014

  Actual Average Record
Temperature  
Mean Temperature 73 °F 66 °F  
Max Temperature 80 °F 76 °F 92 °F (1994)
Min Temperature 65 °F 56 °F 38 °F (2013)
Degree Days  
Heating Degree Days 0 2  
Month to date heating degree days 75 90  
Since 1 July heating degree days 588 772  
Cooling Degree Days 8 3  
Month to date cooling degree days 53 69  
Year to date cooling degree days 137 134  
Growing Degree Days 22 (Base 50)    
Moisture  
Dew Point 62 °F    
Average Humidity 74    
Maximum Humidity 93    
Minimum Humidity 54    
Precipitation  
Precipitation 0.03 in 0.14 in 1.93 in (1996)
Month to date precipitation 3.24 3.84  
Year to date precipitation 9.82 9.36  
Sea Level Pressure  
Sea Level Pressure 30.13 in    
Wind  
Wind Speed 8 mph (SE)    
Max Wind Speed 20 mph    
Max Gust Speed 27 mph    
Visibility 8 miles    
Events Rain    
T = Trace of Precipitation, MM = Missing Value Source: NWS Daily Summary

Daily Weather History Graph

Daily Weather History Graph

Search for Another Location

Airport or City:

Trip Planner

Search our weather history database for the weather conditions in past years. The results will help you decide how hot, cold, wet, or windy it might be!

Date:

Astronomy

Mar. 28, 2014 Rise Set
Actual Time 7:18 AM EDT 7:40 PM EDT
Civil Twilight 6:54 AM EDT 8:04 PM EDT
Nautical Twilight 6:27 AM EDT 8:31 PM EDT
Astronomical Twilight 5:58 AM EDT 9:00 PM EDT
Moon 5:38 AM EDT (3/28) 5:43 PM EDT (3/28)
Length of Visible Light 13h 09m
Length of Day
12h 21m
Waning Crescent, 6% of the Moon is Illuminated
Mar 28
Waning Crescent
Mar 30
New
Apr 7
First Quarter
Apr 15
Full
Apr 22
Last Quarter

Hourly Weather History & Observations

Time (EDT) Temp. Dew Point Humidity Pressure Visibility Wind Dir Wind Speed Gust Speed Precip Events Conditions
12:53 AM 64.9 °F 59.0 °F 81% 30.23 in 10.0 mi Calm Calm - N/A   Overcast
1:53 AM 64.9 °F 59.0 °F 81% 30.22 in 10.0 mi SSE 6.9 mph - N/A   Mostly Cloudy
2:53 AM 64.9 °F 60.1 °F 84% 30.20 in 10.0 mi Variable 5.8 mph - N/A   Partly Cloudy
3:53 AM 64.9 °F 60.1 °F 84% 30.18 in 9.0 mi Variable 3.5 mph - N/A   Scattered Clouds
4:53 AM 64.9 °F 61.0 °F 87% 30.17 in 9.0 mi ESE 3.5 mph - N/A   Partly Cloudy
5:53 AM 64.9 °F 62.1 °F 90% 30.17 in 8.0 mi Calm Calm - N/A   Mostly Cloudy
6:53 AM 66.0 °F 61.0 °F 84% 30.15 in 9.0 mi SE 5.8 mph - N/A   Overcast
7:53 AM 66.0 °F 61.0 °F 84% 30.16 in 8.0 mi SSE 6.9 mph - N/A   Overcast
8:53 AM 69.1 °F 61.0 °F 75% 30.17 in 9.0 mi SSE 6.9 mph - N/A   Mostly Cloudy
9:53 AM 71.1 °F 61.0 °F 70% 30.17 in 9.0 mi SSE 8.1 mph - N/A   Mostly Cloudy
10:53 AM 73.9 °F 61.0 °F 64% 30.18 in 9.0 mi South 12.7 mph 20.7 mph N/A   Mostly Cloudy
11:53 AM 75.9 °F 60.1 °F 58% 30.17 in 9.0 mi SSE 13.8 mph 21.9 mph N/A   Mostly Cloudy
12:53 PM 78.1 °F 60.1 °F 54% 30.14 in 10.0 mi SSE 15.0 mph 25.3 mph N/A   Scattered Clouds
1:53 PM 79.0 °F 60.1 °F 52% 30.12 in 10.0 mi South 10.4 mph 23.0 mph N/A   Scattered Clouds
2:53 PM 79.0 °F 61.0 °F 54% 30.09 in 9.0 mi SSE 17.3 mph 24.2 mph N/A   Mostly Cloudy
3:53 PM 77.0 °F 62.1 °F 60% 30.08 in 10.0 mi SSE 10.4 mph 20.7 mph N/A   Mostly Cloudy
4:53 PM 75.0 °F 63.0 °F 66% 30.07 in 10.0 mi SE 10.4 mph 18.4 mph N/A   Overcast
5:17 PM 72.0 °F 64.9 °F 78% 30.07 in 2.0 mi SE 5.8 mph - N/A Rain Rain
5:36 PM 72.0 °F 64.9 °F 78% 30.07 in 4.0 mi SE 8.1 mph - 0.01 in Rain Light Rain
5:53 PM 72.0 °F 64.9 °F 78% 30.07 in 4.0 mi ESE 8.1 mph - 0.01 in Rain Light Rain
6:37 PM 69.1 °F 66.9 °F 93% 30.08 in 2.0 mi Variable 4.6 mph - 0.02 in Rain Rain
6:53 PM 69.1 °F 66.0 °F 90% 30.07 in 4.0 mi ESE 6.9 mph - 0.02 in   Overcast
7:53 PM 70.0 °F 66.0 °F 87% 30.08 in 4.0 mi Variable 3.5 mph - N/A   Overcast
8:53 PM 70.0 °F 66.0 °F 87% 30.08 in 9.0 mi SE 5.8 mph - 0.00 in   Overcast
9:53 PM 70.0 °F 64.0 °F 81% 30.08 in 10.0 mi SE 4.6 mph - N/A   Overcast
10:53 PM 71.1 °F 64.0 °F 78% 30.07 in 10.0 mi SSE 8.1 mph - N/A   Overcast
11:53 PM 72.0 °F 64.0 °F 76% 30.06 in 10.0 mi South 9.2 mph - N/A   Overcast